Find Local Weather

World > North America > United States > Michigan

Leland, Michigan Regional Weather

Lat: 45.02N, Lon: 85.77W
Wx Zone: MIZ020
Warning FLW WEATHER ALERT - FLOOD WARNING (More Info. Click Here) Warning
Feedback
Expires:201809211400;;983725
ASUS43 KDTX 211310
RWRMI 
MICHIGAN HOURLY REGIONAL WEATHER ROUNDUP
NATIONAL WEATHER SERVICE DETROIT/PONTIAC MI
900 AM EDT FRI SEP 21 2018

NOTE: "FAIR" INDICATES FEW OR NO CLOUDS BELOW 12,000 FEET WITH NO
SIGNIFICANT WEATHER AND/OR OBSTRUCTION TO VISIBILITY.


MIZ016>042-211400-
NORTHERN LOWER MICHIGAN
  
CITY           SKY/WX    TMP DP  RH WIND       PRES   REMARKS
ALPENA         FAIR      75  68  78 S16G29    29.55F                  
BEAVER ISLAND  PTSUNNY   69  64  85 SW20G30   29.50R                  
BELLAIRE       PTSUNNY   72  66  81 SW13G24   29.58R                  
CADILLAC       PTSUNNY   73  67  83 SW20G30   29.64R                  
CHARLEVOIX     PTSUNNY   72  66  83 SW13G26   29.57R                  
FRANKFORT      PTSUNNY   69  66  88 S9G23     29.61R                  
GAYLORD        FAIR      71  68  90 SW17G31   29.58S                  
GRAYLING         N/A    N/A N/A N/A MISG        N/A                   
HARBOR SPRINGS CLOUDY    72  68  87 SW15G24   29.53R                  
HOUGHTON LAKE  FAIR      74  66  76 S16G28    29.63F                  
MANISTEE       PTSUNNY   71  65  81 SW13G23   29.64R                  
OSCODA         FAIR      75  68  78 SW20G25   29.61F                  
PELLSTON       CLOUDY    72  65  78 SW16G32   29.52S                  
ROGERS CITY    FAIR      74  68  82 SW15G21   29.52F                  
TRAVERSE CITY  CLOUDY    73  67  81 SW14G31   29.58R                  
$$

SKY/WX - Weather  TMP - Temperature  DP - Dew Point  RH - Relative Humidity
WIND - Wind Direction/Speed PRES - Barometric Pressure